TimePDT,TemperatureF,Dew PointF,Humidity,Sea Level PressureIn,VisibilityMPH,Wind Direction,Wind SpeedMPH,Gust SpeedMPH,PrecipitationIn,Events,Conditions,WindDirDegrees,DateUTC
12:54 AM,54.0,48.0,80,30.06,10.0,Variable,4.6,-,N/A,,Clear,0,2013-06-21 07:54:00
1:49 AM,53.6,48.2,82,30.01,10.0,South,4.6,-,N/A,,Mostly Cloudy,170,2013-06-21 08:49:00
1:54 AM,54.0,48.9,83,30.05,10.0,SSW,6.9,-,N/A,,Mostly Cloudy,210,2013-06-21 08:54:00
2:54 AM,54.0,48.9,83,30.03,10.0,SSW,6.9,-,N/A,,Mostly Cloudy,200,2013-06-21 09:54:00
3:54 AM,53.1,48.9,86,30.03,10.0,SSW,5.8,-,N/A,,Overcast,210,2013-06-21 10:54:00
4:50 AM,53.6,48.2,82,29.98,10.0,South,4.6,-,N/A,,Scattered Clouds,180,2013-06-21 11:50:00
4:54 AM,53.1,48.9,86,30.02,10.0,South,5.8,-,N/A,,Scattered Clouds,180,2013-06-21 11:54:00
5:16 AM,51.8,48.2,88,29.98,10.0,South,4.6,-,N/A,,Mostly Cloudy,170,2013-06-21 12:16:00
5:23 AM,51.8,48.2,88,29.98,10.0,SSE,3.5,-,N/A,,Scattered Clouds,160,2013-06-21 12:23:00
5:54 AM,52.0,48.0,86,30.02,10.0,South,4.6,-,N/A,,Clear,170,2013-06-21 12:54:00
6:54 AM,54.0,48.0,80,30.02,10.0,South,3.5,-,N/A,,Clear,190,2013-06-21 13:54:00
7:54 AM,55.9,48.9,77,30.03,10.0,Calm,Calm,-,N/A,,Clear,0,2013-06-21 14:54:00
8:54 AM,57.9,50.0,75,30.04,10.0,Variable,3.5,-,N/A,,Clear,0,2013-06-21 15:54:00
9:54 AM,59.0,50.0,72,30.04,10.0,WNW,5.8,-,N/A,,Clear,290,2013-06-21 16:54:00
10:54 AM,60.1,50.0,69,30.04,10.0,NW,8.1,-,N/A,,Clear,320,2013-06-21 17:54:00
11:54 AM,62.1,50.0,65,30.05,10.0,West,11.5,-,N/A,,Clear,280,2013-06-21 18:54:00
12:54 PM,62.1,50.0,65,30.06,10.0,West,12.7,-,N/A,,Clear,280,2013-06-21 19:54:00
1:54 PM,63.0,50.0,63,30.07,10.0,West,12.7,-,N/A,,Clear,280,2013-06-21 20:54:00
2:54 PM,64.0,51.1,63,30.07,10.0,West,11.5,-,N/A,,Clear,270,2013-06-21 21:54:00
3:54 PM,62.1,51.1,67,30.06,10.0,West,12.7,-,N/A,,Clear,260,2013-06-21 22:54:00
4:03 PM,62.6,51.8,68,30.03,10.0,WSW,10.4,-,N/A,,Scattered Clouds,240,2013-06-21 23:03:00
4:54 PM,64.0,51.1,63,30.05,10.0,West,12.7,17.3,N/A,,Partly Cloudy,260,2013-06-21 23:54:00
5:54 PM,62.1,51.1,67,30.04,10.0,West,9.2,20.7,N/A,,Clear,260,2013-06-22 00:54:00
6:54 PM,60.1,50.0,69,30.03,10.0,WSW,11.5,18.4,N/A,,Partly Cloudy,250,2013-06-22 01:54:00
7:54 PM,59.0,50.0,72,30.03,10.0,SW,9.2,-,N/A,,Partly Cloudy,220,2013-06-22 02:54:00
8:54 PM,57.0,50.0,77,30.03,10.0,SSW,8.1,-,N/A,,Mostly Cloudy,210,2013-06-22 03:54:00
9:52 PM,55.4,50.0,82,30.00,10.0,SSW,8.1,-,N/A,,Scattered Clouds,200,2013-06-22 04:52:00
9:54 PM,55.9,50.0,80,30.03,10.0,SSW,8.1,-,N/A,,Partly Cloudy,210,2013-06-22 04:54:00
10:23 PM,55.4,50.0,82,30.00,10.0,SSW,6.9,-,N/A,,Mostly Cloudy,210,2013-06-22 05:23:00
10:54 PM,55.0,50.0,83,30.03,10.0,SSW,6.9,-,N/A,,Mostly Cloudy,210,2013-06-22 05:54:00
11:14 PM,55.4,50.0,82,29.98,10.0,SSW,6.9,-,N/A,,Scattered Clouds,200,2013-06-22 06:14:00
11:41 PM,53.6,50.0,88,29.98,10.0,SSW,6.9,-,N/A,,Mostly Cloudy,200,2013-06-22 06:41:00
11:54 PM,54.0,50.0,86,30.01,10.0,South,5.8,-,N/A,,Mostly Cloudy,190,2013-06-22 06:54:00